This is the latest recevied weather packets stored in our database for station/object K5NOC-12. If no packets are shown the sender has not sent any weather packets the latest 10 day(s).
| Time | Temp. | Humidity | Pressure | Rain* | Wind** | Luminosity | Snow |
|---|---|---|---|---|---|---|---|
| 1777083800 | 21.67° C | 15% | 1007.3 hPa | 0 mm | - | - | - |
| 1777082900 | 22.78° C | 14% | 1007.2 hPa | 0 mm | - | - | - |
| 1777082000 | 23.33° C | 14% | 1007.2 hPa | 0 mm | - | - | - |
| 1777081100 | 23.89° C | 14% | 1007 hPa | 0 mm | - | - | - |
| 1777080200 | 24.44° C | 14% | 1007 hPa | 0 mm | - | - | - |
| 1777079299 | 25° C | 13% | 1007.2 hPa | 0 mm | - | - | - |
| 1777078399 | 25.56° C | 12% | 1007.2 hPa | 0 mm | - | - | - |
| 1777077499 | 25.56° C | 12% | 1007.1 hPa | 0 mm | - | - | - |
| 1777076599 | 26.11° C | 12% | 1007.1 hPa | 0 mm | - | - | - |
| 1777075699 | 26.11° C | 12% | 1007.2 hPa | 0 mm | - | - | - |
| 1777074799 | 26.11° C | 12% | 1007.2 hPa | 0 mm | - | - | - |
| 1777073899 | 26.11° C | 12% | 1007.3 hPa | 0 mm | - | - | - |
| 1777072998 | 27.22° C | 12% | 1007.3 hPa | 0 mm | - | - | - |
| 1777072098 | 26.11° C | 12% | 1007.5 hPa | 0 mm | - | - | - |
| 1777071198 | 26.67° C | 12% | 1007.5 hPa | 0 mm | - | - | - |
| 1777070298 | 26.67° C | 12% | 1007.6 hPa | 0 mm | - | - | - |
| 1777069398 | 26.67° C | 12% | 1007.8 hPa | 0 mm | - | - | - |
| 1777068498 | 26.67° C | 12% | 1008 hPa | 0 mm | - | - | - |
| 1777067598 | 26.11° C | 12% | 1008.2 hPa | 0 mm | - | - | - |
| 1777066698 | 25.56° C | 13% | 1008.4 hPa | 0 mm | - | - | - |
| 1777065798 | 25.56° C | 13% | 1008.6 hPa | 0 mm | - | - | - |
| 1777064897 | 26.11° C | 14% | 1009 hPa | 0 mm | - | - | - |
| 1777063997 | 26.11° C | 14% | 1009.4 hPa | 0 mm | - | - | - |
| 1777063097 | 25.56° C | 15% | 1009.6 hPa | 0 mm | - | - | - |
| 1777062197 | 25.56° C | 15% | 1009.7 hPa | 0 mm | - | - | - |
* Rain latest hour (hover to see other rain measurements)
** Current wind speed in m/s (hover to see current wind gust speed)